Location: Aiyekoto
(8.4333°N, 4.3667°E)
Time: 14:55:49
(UTC+00:00)

ISS - Visible Passes

Search period start: 04 August 2021 00:00
Search period end: 14 August 2021 00:00
Orbit: 419 x 421 km, 51.6° (Epoch: 04 August)

Date Brightness Start Highest point End Pass type
(mag) Time Alt. Az. Time Alt. Az. Time Alt. Az.
06 Aug -0.9 19:51:24 10° NNW 19:51:48 12° N 19:51:48 12° N visible
07 Aug -1.7 19:05:04 10° NNE 19:06:48 15° NE 19:06:48 15° NE visible
08 Aug -1.4 19:53:19 10° NW 19:54:54 23° WNW 19:54:54 23° WNW visible
09 Aug -3.9 19:05:51 10° NNW 19:09:12 81° NE 19:10:07 45° SE visible
10 Aug -2.8 18:18:51 10° NNW 18:21:54 32° NE 18:24:58 10° ESE visible
11 Aug -1.2 19:08:52 10° W 19:11:11 17° SW 19:13:30 10° SSW visible
12 Aug -2.4 18:20:46 10° NW 18:23:55 38° SW 18:27:04 10° SSE visible
